Weather in Picheury

Russia / Republic of Mordovia     54°19′05″N   45°49′19″E
temp.,
°C
wind,
m/s
gust,
m/s
humid.,
%
clouds,
%
prec.,
mm/h
press.,
hPa
HPBL,
m
18 september, sat
sat1800:00+3nw35855 0.0 101978
03:00+1nw22825 0.0 102028
06:00+1nw22935 0.0 102127
09:00+7n46627 0.0 1022910
12:00+8n455299 0.0 10221432
15:00+8n455299 0.0 10231436
18:00+7n2355100 0.0 102370
21:00+4wnw1172100 0.0 102410
19 september, sun
sun1900:00+3n1174100 0.0 102510
03:00+2ene1173100 0.0 102410
06:00+1ene2276100 0.0 102514
09:00+6e3356100 0.0 1026458
12:00+10e3346100 0.0 10251041
15:00+10e3344100 0.0 10241138
18:00+8ene3754100 0.0 1024163
21:00+6e3855100 0.0 1024194
20 september, mon
mon2000:00+6e4952100 0.0 1024293
03:00+6ese4957100 0.1 1023343
06:00+5ese51176100 0.7 1023513
09:00+5ese61290100 3.4 1023665
12:00+5ese71393100 5.6 1023660
15:00+5e71492100 7.9 1022648
18:00+5ese71492100 0.4 1022601
21:00+5ese71592100 0.7 1021671
21 september, tue
tue2100:00+6ese81592100 0.6 1020684
03:00+6ese71595100 3.6 1018636
06:00+7ese81590100 0.6 1018633
09:00+9ese8128167 0.6 1017667
12:00+12ese7107161 0.0 1015764
15:00+14ese696648 0.0 1013909
18:00+11e7138196 0.1 1013405
21:00+9ese61490100 0.2 1012455
22 september, wed
wed2200:00+10ese61696100 4.3 1010477
03:00+9ese3697100 10.3 1010353
06:00+9s1298100 0.3 100972
09:00+11wnw2390100 0.4 1009359
12:00+12wnw248395 0.1 1010226
15:00+11w3682100 0.8 1010433
18:00+9wsw228915 0.4 101219
21:00+7s22888 0.4 101411